Regional Weather Roundup
Issued by NWS Raleigh/Durham, NC

Home | Current Version | Previous Version | Text Only | Print | Product List | Glossary On
Versions: 1 2 3 4 5 6 7 8 9 10 11 12 13 14 15 16 17 18 19 20 21 22 23 24 25 26 27 28 29 30 31 32 33 34 35 36 37 38 39 40 41 42 43 44 45 46 47 48 49 50
000
ASUS42 KRAH 051410
RWRRAH
NORTH CAROLINA WEATHER ROUNDUP
NATIONAL WEATHER SERVICE RALEIGH NC
1000 AM EDT SAT SEP 05 2015

NOTE: "FAIR" INDICATES FEW OR NO CLOUDS BELOW 12,000 FEET WITH NO
SIGNIFICANT WEATHER AND/OR OBSTRUCTIONS TO VISIBILITY.

NCZ001-053-055-056-065-067-051500-
WESTERN NORTH CAROLINA

CITY           SKY/WX    TMP DP  RH WIND       PRES   REMARKS
ASHEVILLE      MOSUNNY   72  63  73 NE3       30.25S
JEFFERSON      CLOUDY    66  65  95 E3        30.30S FOG
MORGANTON      CLOUDY    73  67  82 N6        30.27S
HICKORY        CLOUDY    72  67  84 N5        30.21S HAZE
RUTHERFORDTON  CLOUDY    73  66  79 NE5       30.21S
MOUNT AIRY     PTSUNNY   75  69  82 E7        30.24R
BOONE          MOSUNNY   66  65  99 E3        30.31S FOG
$$

NCZ021-022-025-041-071-084-088-051500-
CENTRAL NORTH CAROLINA

CITY           SKY/WX    TMP DP  RH WIND       PRES   REMARKS
CHARLOTTE      PTSUNNY   75  67  76 NE10G28   30.18S
GREENSBORO     CLOUDY    72  69  90 NE10      30.20R FOG
WINSTON-SALEM  CLOUDY    71  68  90 NE9       30.22R FOG
RALEIGH-DURHAM CLOUDY    74  69  85 NE9       30.17R
FORT BRAGG     CLOUDY    76  70  83 NE7       30.13S
FAYETTEVILLE   CLOUDY    76  71  85 NE13      30.13R
BURLINGTON     CLOUDY    72  72 100 N8        30.19R FOG
LAURINBURG     CLOUDY   N/A N/A N/A NE10      30.13S
$$

NCZ011-015-027-028-043-044-047-080-103-051500-
NORTHEASTERN NORTH CAROLINA

CITY           SKY/WX    TMP DP  RH WIND       PRES   REMARKS
ROCKY MT-WILSO CLOUDY    77  72  84 N9        30.14R HAZE
GREENVILLE     MOSUNNY   77  73  88 N10       30.13R
WASHINGTON     MOSUNNY   78  72  83 N9        30.11R
ELIZABETH CITY MOSUNNY   82  74  76 NE21G29   30.11R
MANTEO         PTSUNNY   81  75  81 E18       30.09R
CAPE HATTERAS  PTSUNNY   81  73  76 NE6       30.06S
$$

NCZ078-087-090-091-093-098-101-051500-
SOUTHEASTERN NORTH CAROLINA

CITY           SKY/WX    TMP DP  RH WIND       PRES   REMARKS
LUMBERTON      NOT AVBL
GOLDSBORO      MOSUNNY   78  72  84 N9        30.11R
KINSTON        MOSUNNY   79  72  78 N12       30.12R
KENANSVILLE      N/A     78  71  79 CALM      30.11F
NEW BERN       MOSUNNY   79  72  79 N9        30.10R
CHERRY POINT   MOSUNNY   79  73  82 NE9       30.09R
BEAUFORT       PTSUNNY   77  74  90 N9        30.07R
JACKSONVILLE   MOSUNNY   80  71  74 N12       30.07S
WILMINGTON     MOSUNNY   79  72  79 NE12      30.08R
$$



USA.gov is the U.S. government's official web portal to all federal, state and local government web resources and services.